Powrót do katalogu

OPS 4682 DEB

AktywnyPO
NORAD 51764·DEBRIS·🇺🇸 United States

Wystrzelony Apr 3, 1965 z Vandenberg Space Force Base

Loading…

Następne Przeloty (najbliższe 24 godziny)

TLE

ŚwieżeSource: Space-Track

Epoka: Sep 13, 2026, 19:22 UTC

1 51764U 65027GV  26256.80732281  .00000381  00000-0  13540-2 0  9992
2 51764  90.2591  10.7339 0038039  41.1880 111.4425 12.93676902604811

Śledź OPS 4682 DEB w czasie rzeczywistym z AllMySat

Download on the App Store